Lawrence, KS

4:35 AM CST on February 09, 2016 (GMT -0600)
Lawrence Municipal

Weather History for KLWC - December, 2012

Change the Weather History Date:

Wednesday, December 26, 2012

  Actual Average Record
Temperature  
Mean Temperature 19 °F 29 °F  
Max Temperature 30 °F 39 °F - ()
Min Temperature 7 °F 19 °F - ()
Degree Days  
Heating Degree Days 46 36  
Month to date heating degree days 726 856  
Since 1 July heating degree days 1758 1864  
Cooling Degree Days 0 0  
Month to date cooling degree days 0 0  
Year to date cooling degree days 1780 1371  
Moisture  
Dew Point 9 °F    
Average Humidity 67    
Maximum Humidity 83    
Minimum Humidity 50    
Precipitation  
Precipitation 0.00 in 0.05 in - ()
Month to date precipitation 0.66 1.23  
Year to date precipitation 20.71 38.31  
Sea Level Pressure  
Sea Level Pressure 30.27 in    
Wind  
Wind Speed 6 mph (NNW)    
Max Wind Speed 14 mph    
Max Gust Speed 17 mph    
Visibility 10 miles    
Events      
T = Trace of Precipitation, MM = Missing Value Source: NWS Daily Summary

Daily Weather History Graph

Daily Weather History Graph

Search for Another Location

Airport or City:

Trip Planner

Search our weather history database for the weather conditions in past years. The results will help you decide how hot, cold, wet, or windy it might be!

Date:

Astronomy

Dec. 26, 2012 Rise Set
Actual Time 7:38 AM CST 5:05 PM CST
Civil Twilight 7:08 AM CST 5:35 PM CST
Nautical Twilight 6:34 AM CST 6:08 PM CST
Astronomical Twilight 6:02 AM CST 6:41 PM CST
Moon 3:59 PM CST (12/26) 6:02 AM CST (12/26)
Length of Visible Light 10h 26m
Length of Day
9h 26m
Waxing Gibbous, 97% of the Moon is Illuminated
Dec 26
Waxing Gibbous
Dec 28
Full
Jan 4
Last Quarter
Jan 11
New
Jan 18
First Quarter

Hourly Weather History & Observations

Time (CST) Temp. Windchill Dew Point Humidity Pressure Visibility Wind Dir Wind Speed Gust Speed Precip Events Conditions
12:52 AM 12.9 °F 0.7 °F 6.1 °F 74% 30.32 in 10.0 mi NNW 9.2 mph - N/A   Clear
1:52 AM 12.0 °F 0.5 °F 6.1 °F 77% 30.31 in 10.0 mi NNW 8.1 mph - N/A   Clear
2:52 AM 12.0 °F -0.4 °F 6.1 °F 77% 30.32 in 10.0 mi NNW 9.2 mph - N/A   Clear
3:52 AM 12.0 °F -2.0 °F 6.1 °F 77% 30.31 in 10.0 mi NNW 11.5 mph - N/A   Clear
4:52 AM 10.9 °F -2.6 °F 6.1 °F 81% 30.29 in 10.0 mi NW 10.4 mph - N/A   Clear
5:52 AM 10.9 °F -1.8 °F 5.0 °F 77% 30.30 in 10.0 mi NNW 9.2 mph - N/A   Clear
6:52 AM 10.0 °F -1.9 °F 3.9 °F 76% 30.30 in 10.0 mi NW 8.1 mph - N/A   Clear
7:52 AM 9.0 °F 0.6 °F 3.9 °F 80% 30.27 in 10.0 mi North 4.6 mph - N/A   Clear
8:52 AM 12.0 °F 0.5 °F 6.1 °F 77% 30.31 in 10.0 mi NW 8.1 mph - N/A   Clear
9:52 AM 16.0 °F 6.3 °F 7.0 °F 68% 30.32 in 10.0 mi NW 6.9 mph - N/A   Clear
10:52 AM 19.9 °F 9.3 °F 9.0 °F 62% 30.31 in 10.0 mi NNW 9.2 mph - N/A   Clear
11:52 AM 24.1 °F 15.2 °F 10.0 °F 55% 30.29 in 10.0 mi NW 8.1 mph - N/A   Clear
12:52 PM 27.0 °F 19.5 °F 10.9 °F 51% 30.26 in 10.0 mi NNW 6.9 mph - N/A   Clear
1:52 PM 28.0 °F 21.7 °F 12.0 °F 51% 30.24 in 10.0 mi Variable 5.8 mph - N/A   Clear
2:52 PM 28.9 °F 22.8 °F 12.9 °F 51% 30.22 in 10.0 mi NW 5.8 mph - N/A   Clear
3:52 PM 28.9 °F 23.9 °F 12.9 °F 51% 30.22 in 10.0 mi WNW 4.6 mph - N/A   Clear
4:52 PM 27.0 °F 20.5 °F 14.0 °F 58% 30.24 in 10.0 mi WNW 5.8 mph - N/A   Clear
5:52 PM 21.9 °F - 12.9 °F 68% 30.25 in 10.0 mi Calm Calm - N/A   Clear
6:52 PM 23.0 °F 18.4 °F 14.0 °F 68% 30.24 in 10.0 mi ENE 3.5 mph - N/A   Clear
7:52 PM 23.0 °F 14.7 °F 14.0 °F 68% 30.22 in 10.0 mi East 6.9 mph - N/A   Clear
8:52 PM 19.0 °F 12.3 °F 12.0 °F 74% 30.21 in 10.0 mi East 4.6 mph - N/A   Clear
9:52 PM 19.0 °F - 12.0 °F 74% 30.22 in 10.0 mi Calm Calm - N/A   Clear
11:52 PM 17.1 °F - 10.9 °F 77% 30.21 in 10.0 mi Calm Calm - N/A   Clear